Flag for Germany Weather past 2 weeks in Nürburg, Rhineland-Palatinate, Germany

Now
61 °F

Overcast.


Feels Like: 61 °F
Forecast: 60 / 76 °F
Wind: 1 mph from South

Location: Nuerburg-Barweiler

Current Time: Aug 1, 2014 at 2:17:53 AM

Latest Report: Aug 1, 2014 at 1:00 AM


Visibility: 19 mi

Pressure: 29.94 "Hg

Humidity: 69%

Dew point: 51 °F

Location of NürburgLocation

Historic Weather in Nürburg — Graph

°F

Nürburg temperature yesterday

Maximum temperature yesterday: 74 °F (at 6:00 PM)
Minimum temperature yesterday: 54 °F (at 5:00 AM)
Average temperature yesterday: 63 °F

Past Weeks' High & Low Weather Summary

 TemperatureHumidityPressure
High86 °F (Jul 18, 6:00 PM)100% (Jul 30, 7:00 AM)30.20 "Hg (Jul 30, 7:00 AM)
Low53 °F (Jul 25, 6:00 AM)30% (Jul 18, 6:00 PM)29.77 "Hg (Jul 20, 2:00 PM)
Average67 °F76%29.94 "Hg
* Reported Jul 17 1:00 AM — Aug 1 1:00 AM, Nürburg, Weather by CustomWeather, © 2014

Note: Actual official high and low records may vary slightly from our data, if they occured in-between our weather recording intervals... More about our weather records

Advertising

Nürburg weather history for previous 24 hours

 ConditionsComfort  
Time TempWeatherWind HumidityBarometerVisibility
1:00 AM
Aug 1
61 °FOvercast.1 mph69%29.94 "Hg19 mi
12:00 AM62 °FOvercast.1 mph66%29.94 "Hg19 mi
11:00 PM
Jul 31
65 °FOvercast.2 mph58%29.93 "Hg22 mi
10:00 PM67 °FOvercast.2 mph54%29.93 "Hg25 mi
9:00 PM69 °FScattered clouds.2 mph54%29.92 "Hg37 mi
8:00 PM71 °FScattered clouds.1 mph46%29.91 "Hg37 mi
7:00 PM72 °FPassing clouds.2 mph40%29.91 "Hg37 mi
6:00 PM74 °FPassing clouds.2 mph40%29.92 "Hg37 mi
5:00 PM72 °FPassing clouds.2 mph48%29.93 "Hg37 mi
4:00 PM72 °FPassing clouds.2 mph44%29.95 "Hg37 mi
3:00 PM72 °FPassing clouds.1 mph50%29.95 "Hg37 mi
2:00 PM70 °FPassing clouds.3 mph52%29.97 "Hg34 mi
1:00 PM69 °FPassing clouds.2 mph52%29.98 "Hg31 mi
12:00 PM67 °FPassing clouds.2 mph61%30.00 "Hg31 mi
11:00 AM65 °FPassing clouds.2 mph70%30.01 "Hg19 mi
10:00 AM59 °FFog.2 mph87%30.03 "Hg11 mi
9:00 AM56 °FFog.1 mph98%30.03 "Hg1 mi
8:00 AM55 °FFog.1 mph96%30.03 "Hg1 mi
7:00 AM54 °FFog.1 mph98%30.03 "Hg4 mi
6:00 AM54 °FScattered clouds.2 mph98%30.02 "Hg5 mi
5:00 AM54 °FPassing clouds.1 mph98%30.02 "Hg1 mi
4:00 AM55 °FFog.2 mph97%30.02 "Hg2 mi
3:00 AM56 °FFog.2 mph96%30.02 "Hg4 mi
2:00 AM56 °FFog.2 mph95%30.02 "Hg4 mi
Weather by CustomWeather, © 2014

See weather overviewHow to use our weather pages